Regional Weather Roundup
Issued by NWS

Home | Current Version | Previous Version | Text Only | Print | Product List | Glossary Off
Versions: 1 2 3 4 5 6 7 8 9 10 11 12 13 14 15 16 17 18 19 20 21 22 23 24 25 26 27

000
ASUS45 KCYS 210110
RWRWY

WYOMING REGIONAL WEATHER ROUNDUP
NATIONAL WEATHER SERVICE CHEYENNE WY
600 PM MST MON NOV 20 2017

NOTE:  "FAIR" INDICATES FEW OR NO CLOUDS BELOW 12,000 FEET
WITH NO SIGNIFICANT WEATHER AND/OR OBSTRUCTIONS TO VISIBILITY.

WYZ001-210200-
YELLOWSTONE NATIONAL PARK

CITY           SKY/WX    TMP DP  RH WIND       PRES   REMARKS
LK YELLOWSTONE   N/A     27  25  92 W5        29.96F WCI  22
W YELLOWSTONE  NOT AVBL

$$
WYZ002>013-054>058-071-098>099-210200-
NORTHERN WYOMING

CITY           SKY/WX    TMP DP  RH WIND       PRES   REMARKS
JACKSON        LGT SNOW  33  31  92 SW6       30.00S FOG     WCI  28
CODY           FAIR      43  29  57 VRB7      29.81R
GREYBULL       CLOUDY    38  27  64 E5        29.81R WCI  34
WORLAND        CLOUDY    35  29  78 CALM      29.81R
SHERIDAN       CLOUDY    49  30  48 NE9       29.73R
BUFFALO        CLOUDY    48  21  34 NE3       29.75S
GILLETTE       MOCLDY    45  25  45 SW12      29.72S
HULETT         CLOUDY    45  25  45 N8        29.74R
NEWCASTLE      FAIR      39  21  48 N9        29.75F WCI  33

$$
WYZ014>020-022>026-101>103-210200-
CENTRAL WYOMING

CITY           SKY/WX    TMP DP  RH WIND       PRES   REMARKS
BIG PINEY      FAIR      30  24  78 E9        30.05R WCI  22
PINEDALE       CLOUDY    34  27  75 N3        30.05S
DUBOIS         CLOUDY    34  28  80 N16G25    29.90F WCI  23
LANDER         FAIR      38  22  52 W8        29.86R WCI  32
RIVERTON       FAIR      41  24  51 W9        29.86R
CASPER         MOCLDY    45  21  38 SW16      29.85R
DOUGLAS        FAIR      48  24  39 W17       29.81S

$$
WYZ021-027>030-104>119-210200-
SOUTHERN WYOMING

CITY           SKY/WX    TMP DP  RH WIND       PRES   REMARKS
EVANSTON       CLOUDY    38  26  62 SW10      30.11R WCI  31
KEMMERER       FAIR      32  28  86 W25G32    30.06R WCI  19
FORT BRIDGER   FAIR      38  29  71 W22G28    30.09R WCI  27
ROCK SPRINGS   CLOUDY    38  22  52 W21G28    30.05R WCI  28
DIXON          CLOUDY    38  20  49 W7        30.09R WCI  32
RAWLINS        FAIR      36  20  52 SW20G29   29.97R WCI  25
SARATOGA       CLOUDY    39  16  38 S5        30.03R
LARAMIE        CLOUDY    40  13  33 SW12      29.94S WCI  33
CHEYENNE       FAIR      50  10  20 S7        29.87S
TORRINGTON     FAIR      54  17  23 NW12G23   29.78S
PINE BLUFFS    FAIR      50  12  22 NW12      29.86R

$$




USA.gov is the U.S. government's official web portal to all federal, state and local government web resources and services.